Home > Time Zones > World Clock > Weather > India > Buxar > Past weeks

Flag for India Weather past 2 weeks in Buxar, Bihar, India

Now
86 °F

Passing clouds.


Feels Like: 95 °F
Forecast: 82 / 95 °F
Wind: 3 mph from Southwest

Location: Varanasi / Babatpur

Current Time: Jul 2, 2015 at 11:57:53 PM

Latest Report: Jul 2, 2015 at 11:00 PM


Visibility: 3 mi

Pressure: 29.59 "Hg

Humidity: 70%

Dew point: 75 °F

Location of BuxarLocation

Historic Weather in Buxar — Graph

°F

Buxar temperature yesterday

Maximum temperature yesterday: 97 °F (at 2:00 PM)
Minimum temperature yesterday: 81 °F (at 6:00 AM)
Average temperature yesterday: 89 °F

Past Weeks' High & Low Weather Summary

 TemperatureHumidityPressure
High106 °F (Jun 20, 3:00 PM)100% (Jun 28, 1:00 PM)29.68 "Hg (Jun 28, 1:00 PM)
Low75 °F (Jun 29, 12:00 AM)31% (Jun 19, 2:00 PM)29.30 "Hg (Jun 22, 5:00 PM)
Average90 °F63%29.49 "Hg
* Reported Jun 17 9:00 PM — Jul 2 9:00 PM, Buxar, Weather by CustomWeather, © 2015

Note: Actual official high and low records may vary slightly from our data, if they occured in-between our weather recording intervals... More about our weather records

Advertising

Buxar weather history for previous 24 hours

 ConditionsComfort  
Time TempWeatherWind HumidityBarometerVisibility
9:00 PM
Thu, Jul 2
88 °FHaze.3 mph70%29.59 "Hg3 mi
7:00 PM93 °FScattered clouds.No wind63%29.53 "Hg4 mi
6:00 PM93 °FScattered clouds.3 mph67%29.53 "Hg4 mi
5:00 PM99 °FScattered clouds.3 mph53%29.53 "Hg4 mi
4:00 PM99 °FScattered clouds.7 mph50%29.53 "Hg4 mi
3:00 PM99 °FScattered clouds.8 mph53%29.56 "Hg4 mi
2:00 PM97 °FScattered clouds.9 mph56%29.59 "Hg4 mi
1:00 PM95 °FScattered clouds.7 mph60%29.59 "Hg4 mi
12:00 PM93 °FHaze.7 mph63%29.62 "Hg3 mi
11:00 AM93 °FHaze.7 mph59%29.65 "Hg3 mi
9:00 AM88 °FHaze.7 mph70%29.65 "Hg2 mi
8:00 AM86 °FHaze.6 mph75%29.65 "Hg2 mi
7:00 AM84 °FHaze.5 mph79%29.65 "Hg2 mi
6:00 AM82 °FScattered clouds.3 mph84%29.62 "Hg2 mi
5:00 AM84 °FPassing clouds.3 mph84%29.62 "Hg2 mi
4:00 AM84 °FPartly cloudy.No wind79%29.62 "Hg2 mi
12:00 AM86 °FPassing clouds.No wind84%29.65 "Hg2 mi
11:00 PM
Wed, Jul 1
86 °FPassing clouds.No wind84%29.65 "Hg2 mi
Weather by CustomWeather, © 2015

See weather overviewHow to use our weather pages